Home   Weather   Cadiz   Past weeks

Flag for Spain Past Weather in Cadiz, Cádiz, Spain — Yesterday and Last 2 Weeks

Now
64 °F

Passing clouds.


Feels Like: 64 °F
Forecast: 57 / 64 °F
Wind: 14 mph from Southwest

Location: Rota Airport

Current Time: Apr 25, 2017 at 8:39:53 pm

Latest Report: Apr 25, 2017 at 8:00 pm


Visibility: N/A

Pressure: 29.86 "Hg

Humidity: 73%

Dew Point: 55 °F

Location of CadizLocation

Past Weather in Cadiz — Graph

°F

Cadiz Temperature Yesterday

Maximum temperature yesterday: 70 °F (at 1:00 pm)
Minimum temperature yesterday: 59 °F (at 1:00 am)
Average temperature yesterday: 64 °F

High & Low Weather Summary for the Past Weeks

 TemperatureHumidityPressure
High86 °F (Apr 18, 3:00 pm)100% (Apr 14, 2:00 am)30.18 "Hg (Apr 14, 2:00 am)
Low52 °F (Apr 12, 4:00 am)34% (Apr 12, 1:00 pm)29.77 "Hg (Apr 18, 5:00 pm)
Average65 °F69%30.01 "Hg
* Reported Apr 10 7:00 pm — Apr 25 7:00 pm, Cadiz, Weather by CustomWeather, © 2017

Note: Actual official high and low records may vary slightly from our data, if they occured in-between our weather recording intervals... More about our weather records

Advertising

Cadiz Weather History for the Previous 24 Hours

Scroll right to see more
 ConditionsComfort  
Time TempWeatherWind HumidityBarometerVisibility
7:00 pm
Tue, Apr 25
66 °FPassing clouds.14 mph73%29.89 "HgN/A
6:00 pm66 °FPassing clouds.16 mph68%29.89 "HgN/A
5:00 pm66 °FPassing clouds.15 mph73%29.89 "HgN/A
4:00 pm68 °FPassing clouds.12 mph73%29.89 "HgN/A
3:00 pm68 °FScattered clouds.12 mph73%29.92 "HgN/A
2:00 pm68 °FScattered clouds.12 mph73%29.92 "HgN/A
1:00 pm68 °FScattered clouds.9 mph73%29.92 "HgN/A
12:00 pm66 °FBroken clouds.10 mph78%29.92 "HgN/A
11:00 am64 °FBroken clouds.9 mph83%29.92 "HgN/A
10:00 am63 °FBroken clouds.9 mph88%29.92 "HgN/A
9:00 am63 °FCloudy.10 mph94%29.92 "Hg6 mi
8:00 am63 °FBroken clouds.6 mph88%29.89 "Hg4 mi
7:00 am63 °FPartly cloudy.5 mph88%29.89 "HgN/A
6:00 am63 °FPartly cloudy.3 mph88%29.92 "HgN/A
5:00 am61 °FPassing clouds.6 mph83%29.92 "HgN/A
4:00 am61 °FPassing clouds.7 mph77%29.92 "HgN/A
3:00 am63 °FPassing clouds.5 mph68%29.92 "HgN/A
2:00 am61 °FPassing clouds.2 mph83%29.95 "HgN/A
1:00 am61 °FPassing clouds.5 mph88%29.95 "HgN/A
12:00 am61 °FPassing clouds.7 mph88%29.95 "HgN/A
11:00 pm
Mon, Apr 24
63 °FClear.6 mph73%29.95 "Hg10 mi
10:00 pm63 °FPassing clouds.5 mph73%29.92 "HgN/A
9:00 pm64 °FSunny.10 mph73%29.92 "Hg10 mi
8:00 pm66 °FSunny.13 mph68%29.92 "Hg10 mi
Weather by CustomWeather, © 2017

See weather overviewHow to use our weather pages